Location: Newark
(45.8667°N, 9.7333°E)
Time: 14:38:37
(UTC+00:00)

Transit 4A - All Passes

Search period start: 24 January 2020 00:00
Search period end: 03 February 2020 00:00
Orbit: 871 x 973 km, 66.8° (Epoch: 23 January)

Date Brightness Start Highest point End Pass type
(mag) Time Alt. Az. Time Alt. Az. Time Alt. Az.
24 Jan - 05:56:23 10° SSW 06:02:20 64° ESE 06:08:11 10° NE visible
24 Jan - 07:43:57 10° WSW 07:49:07 29° NW 07:54:14 10° NNE daylight
24 Jan - 09:36:07 10° NNW 09:37:35 11° NNW 09:39:02 10° N daylight
24 Jan - 13:10:55 10° NNW 13:15:40 25° NE 13:20:24 10° E daylight
24 Jan - 14:56:48 10° NW 15:02:38 78° WSW 15:08:29 10° SSE daylight
24 Jan - 16:45:42 10° WNW 16:47:59 12° WSW 16:50:18 10° SW visible
25 Jan - 04:22:40 10° SE 04:26:06 16° ESE 04:29:30 10° ENE visible
25 Jan - 06:05:36 10° SSW 06:11:38 90° SE 06:17:34 10° NNE visible
25 Jan - 07:54:09 10° W 07:58:46 23° NW 08:03:21 10° NNE daylight
25 Jan - 11:35:04 10° N 11:36:57 11° NNE 11:38:50 10° NE daylight
25 Jan - 13:20:04 10° NNW 13:25:17 32° NE 13:30:29 10° ESE daylight
25 Jan - 15:06:14 10° NW 15:11:53 53° WSW 15:17:34 10° S daylight
26 Jan - 04:30:29 10° SSE 04:35:08 24° ESE 04:39:43 10° ENE visible
26 Jan - 06:15:01 10° SW 06:21:01 65° NW 06:26:53 10° NNE visible
26 Jan - 08:04:33 10° WNW 08:08:30 18° NNW 08:12:26 10° N daylight
26 Jan - 11:43:58 10° N 11:46:52 14° NNE 11:49:44 10° NE daylight
26 Jan - 13:29:15 10° NNW 13:34:49 44° NE 13:40:23 10° ESE daylight
26 Jan - 15:15:48 10° NW 15:21:04 36° WSW 15:26:23 10° S daylight
27 Jan - 04:38:53 10° S 04:44:15 34° ESE 04:49:32 10° NE visible
27 Jan - 06:24:41 10° WSW 06:30:27 47° NW 06:36:08 10° NNE daylight
27 Jan - 08:15:09 10° WNW 08:18:19 14° NNW 08:21:29 10° N daylight
27 Jan - 11:52:59 10° N 11:56:41 17° NNE 12:00:23 10° ENE daylight
27 Jan - 13:38:30 10° NNW 13:44:16 61° NE 13:50:04 10° SE daylight
27 Jan - 15:25:34 10° NW 15:30:11 25° WSW 15:34:50 10° SSW daylight
28 Jan - 04:47:38 10° S 04:53:26 50° ESE 04:59:06 10° NE visible
28 Jan - 06:34:32 10° WSW 06:39:59 35° NW 06:45:20 10° NNE daylight
28 Jan - 08:25:59 10° NW 08:28:12 12° NNW 08:30:24 10° N daylight
28 Jan - 12:02:03 10° NNW 12:06:27 21° NE 12:10:49 10° E daylight
28 Jan - 13:47:47 10° NNW 13:53:39 85° ENE 13:59:32 10° SSE daylight
28 Jan - 15:35:42 10° WNW 15:39:13 17° WSW 15:42:46 10° SW daylight
29 Jan - 03:15:20 10° ESE 03:17:21 12° E 03:19:20 10° E visible
29 Jan - 04:56:41 10° SSW 05:02:40 73° ESE 05:08:33 10° NE visible
29 Jan - 06:44:36 10° W 06:49:35 27° NW 06:54:30 10° NNE daylight
29 Jan - 08:37:19 10° NNW 08:38:09 10° NNW 08:38:59 10° N daylight
29 Jan - 10:26:36 10° N 10:27:35 10° NNE 10:28:33 10° NNE daylight
29 Jan - 12:11:11 10° NNW 12:16:07 27° NE 12:21:03 10° E daylight
29 Jan - 13:57:10 10° NW 14:02:58 68° WSW 14:08:47 10° SSE daylight
29 Jan - 15:47:20 10° W 15:48:12 10° W 15:49:04 10° WSW daylight
30 Jan - 03:22:23 10° SSE 03:26:20 18° ESE 03:30:14 10° ENE visible
30 Jan - 05:05:58 10° SW 05:12:00 81° WNW 05:17:55 10° NNE visible
30 Jan - 06:54:52 10° W 06:59:15 21° NW 07:03:37 10° NNE daylight
30 Jan - 10:35:15 10° N 10:37:31 12° NNE 10:39:48 10° NE daylight
30 Jan - 12:20:21 10° NNW 12:25:43 36° NE 12:31:04 10° ESE daylight
30 Jan - 14:06:38 10° NW 14:12:11 47° WSW 14:17:46 10° S daylight
31 Jan - 03:30:28 10° SSE 03:35:24 27° ESE 03:40:15 10° NE visible
31 Jan - 05:15:29 10° SW 05:21:23 58° NW 05:27:11 10° NNE visible
31 Jan - 07:05:21 10° WNW 07:09:01 17° NNW 07:12:40 10° N daylight
31 Jan - 10:44:11 10° N 10:47:23 15° NNE 10:50:35 10° ENE daylight
31 Jan - 12:29:34 10° NNW 12:35:13 49° NE 12:40:53 10° SE daylight
31 Jan - 14:16:16 10° NW 14:21:21 32° WSW 14:26:27 10° S daylight
01 Feb - 03:39:01 10° S 03:44:32 39° ESE 03:49:58 10° NE visible
01 Feb - 05:25:12 10° WSW 05:30:51 42° NW 05:36:26 10° NNE visible
01 Feb - 07:16:02 10° NW 07:18:52 13° NNW 07:21:41 10° N daylight
01 Feb - 10:53:15 10° N 10:57:12 18° NNE 11:01:09 10° ENE daylight
01 Feb - 12:38:49 10° NNW 12:44:39 69° NE 12:50:30 10° SE daylight
01 Feb - 14:26:08 10° WNW 14:30:26 22° WSW 14:34:46 10° SSW daylight
02 Feb - 03:47:52 10° SSW 03:53:44 57° ESE 03:59:30 10° NE visible
02 Feb - 05:35:09 10° WSW 05:40:24 31° NW 05:45:37 10° NNE visible
02 Feb - 07:27:00 10° NW 07:28:46 11° NNW 07:30:33 10° N daylight
02 Feb - 11:02:20 10° NNW 11:06:55 23° NE 11:11:30 10° E daylight
02 Feb - 12:48:09 10° NW 12:54:00 85° WSW 12:59:53 10° SSE daylight
02 Feb - 14:36:31 10° WNW 14:39:27 14° WSW 14:42:24 10° SW daylight
